owner,sensor,date,latitude,longitude,vertical_datum,direction_of_sea_water_velocity,sea_water_speed,upward_sea_water_velocity,qcFlag 
TABS,ioos:station:wmo:42043:1,2013-06-01T00:00:00Z,28.9818,-94.9186,2.0,224.9996843,1412.799349,-99999.0,'11144222,11111222,99999999' 
TABS,ioos:station:wmo:42043:1,2013-06-01T00:30:00Z,28.9818,-94.9186,2.0,224.9996843,1412.799349,-99999.0,'11144222,11111222,99999999' 
TABS,ioos:station:wmo:42043:1,2013-06-01T01:00:00Z,28.9818,-94.9186,2.0,224.9996843,1412.799349,-99999.0,'11144222,11111222,99999999' 
TABS,ioos:station:wmo:42043:1,2013-06-01T01:30:00Z,28.9818,-94.9186,2.0,224.9996843,1412.799349,-99999.0,'11144222,11111222,99999999' 
TABS,ioos:station:wmo:42043:1,2013-06-01T02:00:00Z,28.9818,-94.9186,2.0,224.9996843,1412.799349,-99999.0,'11144222,11111222,99999999' 
TABS,ioos:station:wmo:42043:1,2013-06-01T02:30:00Z,28.9818,-94.9186,2.0,224.9996843,1412.799349,-99999.0,'11144222,11111222,99999999' 
TABS,ioos:station:wmo:42043:1,2013-06-01T03:00:00Z,28.9818,-94.9186,2.0,224.9996843,1412.799349,-99999.0,'11144222,11111222,99999999' 
TABS,ioos:station:wmo:42043:1,2013-06-01T03:30:00Z,28.9818,-94.9186,2.0,224.9996843,1412.799349,-99999.0,'11144222,11111222,99999999' 
TABS,ioos:station:wmo:42043:1,2013-06-01T04:00:00Z,28.9818,-94.9186,2.0,224.9996843,1412.799349,-99999.0,'11144222,11111222,99999999' 
TABS,ioos:station:wmo:42043:1,2013-06-01T04:30:00Z,28.9818,-94.9186,2.0,224.9996843,1412.799349,-99999.0,'11144222,11111222,99999999' 
TABS,ioos:station:wmo:42043:1,2013-06-01T05:00:00Z,28.9818,-94.9186,2.0,224.9996843,1412.799349,-99999.0,'11144222,11111222,99999999' 
TABS,ioos:station:wmo:42043:1,2013-06-01T05:30:00Z,28.9818,-94.9186,2.0,224.9996843,1412.799349,-99999.0,'11144222,11111222,99999999' 
TABS,ioos:station:wmo:42043:1,2013-06-01T06:00:00Z,28.9818,-94.9186,2.0,224.9996843,1412.799349,-99999.0,'11144222,11111222,99999999' 
TABS,ioos:station:wmo:42043:1,2013-06-01T06:30:00Z,28.9818,-94.9186,2.0,224.9996843,1412.799349,-99999.0,'11144222,11111222,99999999' 
TABS,ioos:station:wmo:42043:1,2013-06-01T07:00:00Z,28.9818,-94.9186,2.0,224.9996843,1412.799349,-99999.0,'11144222,11111222,99999999' 
TABS,ioos:station:wmo:42043:1,2013-06-01T07:30:00Z,28.9818,-94.9186,2.0,224.9996843,1412.799349,-99999.0,'11144222,11111222,99999999' 
TABS,ioos:station:wmo:42043:1,2013-06-01T08:00:00Z,28.9818,-94.9186,2.0,224.9996843,1412.799349,-99999.0,'11144222,11111222,99999999' 
TABS,ioos:station:wmo:42043:1,2013-06-01T08:30:00Z,28.9818,-94.9186,2.0,224.9996843,1412.799349,-99999.0,'11144222,11111222,99999999' 
TABS,ioos:station:wmo:42043:1,2013-06-01T09:00:00Z,28.9818,-94.9186,2.0,224.9996843,1412.799349,-99999.0,'11144222,11111222,99999999' 
TABS,ioos:station:wmo:42043:1,2013-06-01T09:30:00Z,28.9818,-94.9186,2.0,224.9996843,1412.799349,-99999.0,'11144222,11111222,99999999' 
TABS,ioos:station:wmo:42043:1,2013-06-01T10:00:00Z,28.9818,-94.9186,2.0,224.9996843,1412.799349,-99999.0,'11144222,11111222,99999999' 
TABS,ioos:station:wmo:42043:1,2013-06-01T10:30:00Z,28.9818,-94.9186,2.0,224.9996843,1412.799349,-99999.0,'11144222,11111222,99999999' 
TABS,ioos:station:wmo:42043:1,2013-06-01T11:00:00Z,28.9818,-94.9186,2.0,224.9996843,1412.799349,-99999.0,'11144222,11111222,99999999' 
TABS,ioos:station:wmo:42043:1,2013-06-01T11:30:00Z,28.9818,-94.9186,2.0,224.9996843,1412.799349,-99999.0,'11144222,11111222,99999999' 
TABS,ioos:station:wmo:42043:1,2013-06-01T12:00:00Z,28.9818,-94.9186,2.0,224.9996843,1412.799349,-99999.0,'11144222,11111222,99999999' 
TABS,ioos:station:wmo:42043:1,2013-06-01T12:30:00Z,28.9818,-94.9186,2.0,224.9996843,1412.799349,-99999.0,'11144222,11111222,99999999' 
TABS,ioos:station:wmo:42043:1,2013-06-01T13:00:00Z,28.9818,-94.9186,2.0,224.9996843,1412.799349,-99999.0,'11144222,11111222,99999999' 
TABS,ioos:station:wmo:42043:1,2013-06-01T13:30:00Z,28.9818,-94.9186,2.0,224.9996843,1412.799349,-99999.0,'11144222,11111222,99999999' 
TABS,ioos:station:wmo:42043:1,2013-06-01T14:00:00Z,28.9818,-94.9186,2.0,224.9996843,1412.799349,-99999.0,'11144222,11111222,99999999' 
TABS,ioos:station:wmo:42043:1,2013-06-01T14:30:00Z,28.9818,-94.9186,2.0,224.9996843,1412.799349,-99999.0,'11144222,11111222,99999999' 
TABS,ioos:station:wmo:42043:1,2013-06-01T15:00:00Z,28.9818,-94.9186,2.0,224.9996843,1412.799349,-99999.0,'11144222,11111222,99999999' 
TABS,ioos:station:wmo:42043:1,2013-06-01T15:30:00Z,28.9818,-94.9186,2.0,224.9996843,1412.799349,-99999.0,'11144222,11111222,99999999' 
TABS,ioos:station:wmo:42043:1,2013-06-01T16:00:00Z,28.9818,-94.9186,2.0,224.9996843,1412.799349,-99999.0,'11144222,11111222,99999999' 
TABS,ioos:station:wmo:42043:1,2013-06-01T16:30:00Z,28.9818,-94.9186,2.0,224.9996843,1412.799349,-99999.0,'11144222,11111222,99999999' 
TABS,ioos:station:wmo:42043:1,2013-06-01T17:00:00Z,28.9818,-94.9186,2.0,224.9996843,1412.799349,-99999.0,'11144222,11111222,99999999' 
TABS,ioos:station:wmo:42043:1,2013-06-01T17:30:00Z,28.9818,-94.9186,2.0,224.9996843,1412.799349,-99999.0,'11144222,11111222,99999999' 
TABS,ioos:station:wmo:42043:1,2013-06-01T18:00:00Z,28.9818,-94.9186,2.0,224.9996843,1412.799349,-99999.0,'11144222,11111222,99999999' 
TABS,ioos:station:wmo:42043:1,2013-06-01T18:30:00Z,28.9818,-94.9186,2.0,224.9996843,1412.799349,-99999.0,'11144222,11111222,99999999' 
TABS,ioos:station:wmo:42043:1,2013-06-01T19:00:00Z,28.9818,-94.9186,2.0,224.9996843,1412.799349,-99999.0,'11144222,11111222,99999999' 
TABS,ioos:station:wmo:42043:1,2013-06-01T19:30:00Z,28.9818,-94.9186,2.0,224.9996843,1412.799349,-99999.0,'11144222,11111222,99999999' 
TABS,ioos:station:wmo:42043:1,2013-06-01T20:00:00Z,28.9818,-94.9186,2.0,224.9996843,1412.799349,-99999.0,'11144222,11111222,99999999' 
TABS,ioos:station:wmo:42043:1,2013-06-01T20:30:00Z,28.9818,-94.9186,2.0,224.9996843,1412.799349,-99999.0,'11144222,11111222,99999999' 
TABS,ioos:station:wmo:42043:1,2013-06-01T21:00:00Z,28.9818,-94.9186,2.0,224.9996843,1412.799349,-99999.0,'11144222,11111222,99999999' 
TABS,ioos:station:wmo:42043:1,2013-06-01T21:30:00Z,28.9818,-94.9186,2.0,224.9996843,1412.799349,-99999.0,'11144222,11111222,99999999' 
TABS,ioos:station:wmo:42043:1,2013-06-01T22:00:00Z,28.9818,-94.9186,2.0,224.9996843,1412.799349,-99999.0,'11144222,11111222,99999999' 
TABS,ioos:station:wmo:42043:1,2013-06-01T22:30:00Z,28.9818,-94.9186,2.0,224.9996843,1412.799349,-99999.0,'11144222,11111222,99999999' 
TABS,ioos:station:wmo:42043:1,2013-06-01T23:00:00Z,28.9818,-94.9186,2.0,224.9996843,1412.799349,-99999.0,'11144222,11111222,99999999' 
TABS,ioos:station:wmo:42043:1,2013-06-01T23:30:00Z,28.9818,-94.9186,2.0,224.9996843,1412.799349,-99999.0,'11144222,11111222,99999999' 
TABS,ioos:station:wmo:42043:1,2013-06-02T00:00:00Z,28.9818,-94.9186,2.0,41.76784019,90.42016645,-99999.0,'11111222,11111222,99999999' 
TABS,ioos:station:wmo:42043:1,2013-06-02T00:30:00Z,28.9818,-94.9186,2.0,32.77345227,160.8670072,-99999.0,'11133222,11111222,99999999' 
TABS,ioos:station:wmo:42043:1,2013-06-02T01:00:00Z,28.9818,-94.9186,2.0,51.45780279,178.9302171,-99999.0,'11133222,11111222,99999999' 
TABS,ioos:station:wmo:42043:1,2013-06-02T01:30:00Z,28.9818,-94.9186,2.0,32.61638567,193.5772148,-99999.0,'11144222,11111222,99999999' 
TABS,ioos:station:wmo:42043:1,2013-06-02T02:00:00Z,28.9818,-94.9186,2.0,63.56759002,179.7400974,-99999.0,'11133222,11111222,99999999' 
TABS,ioos:station:wmo:42043:1,2013-06-02T02:30:00Z,28.9818,-94.9186,2.0,32.56159672,255.5722256,-99999.0,'11144222,11111222,99999999' 
TABS,ioos:station:wmo:42043:1,2013-06-02T03:00:00Z,28.9818,-94.9186,2.0,51.72176082,151.997921,-99999.0,'11133222,11111222,99999999' 
TABS,ioos:station:wmo:42043:1,2013-06-02T03:30:00Z,28.9818,-94.9186,2.0,31.483431,137.5012134,-99999.0,'11111222,11111222,99999999' 
TABS,ioos:station:wmo:42043:1,2013-06-02T04:00:00Z,28.9818,-94.9186,2.0,46.53951285,137.6597345,-99999.0,'11111222,11111222,99999999' 
TABS,ioos:station:wmo:42043:1,2013-06-02T04:30:00Z,28.9818,-94.9186,2.0,46.10348545,106.8565772,-99999.0,'11111222,11111222,99999999' 
TABS,ioos:station:wmo:42043:1,2013-06-02T05:00:00Z,28.9818,-94.9186,2.0,0.695540925,95.58703887,-99999.0,'11111222,11111222,99999999' 
TABS,ioos:station:wmo:42043:1,2013-06-02T05:30:00Z,28.9818,-94.9186,2.0,38.95617318,64.94104172,-99999.0,'11111222,11111222,99999999' 
TABS,ioos:station:wmo:42043:1,2013-06-02T06:00:00Z,28.9818,-94.9186,2.0,359.9544315,87.61002796,-99999.0,'11111222,11144222,99999999' 
TABS,ioos:station:wmo:42043:1,2013-06-02T06:30:00Z,28.9818,-94.9186,2.0,343.3021034,49.97745992,-99999.0,'11111222,11111222,99999999' 
TABS,ioos:station:wmo:42043:1,2013-06-02T07:00:00Z,28.9818,-94.9186,2.0,339.6146158,28.33461664,-99999.0,'11111222,11111222,99999999' 
TABS,ioos:station:wmo:42043:1,2013-06-02T07:30:00Z,28.9818,-94.9186,2.0,9.314968431,32.55932739,-99999.0,'11111222,11111222,99999999' 
TABS,ioos:station:wmo:42043:1,2013-06-02T08:00:00Z,28.9818,-94.9186,2.0,330.9689557,33.46468586,-99999.0,'11111222,11111222,99999999' 
TABS,ioos:station:wmo:42043:1,2013-06-02T08:30:00Z,28.9818,-94.9186,2.0,302.1663489,46.50864973,-99999.0,'11111222,11111222,99999999' 
TABS,ioos:station:wmo:42043:1,2013-06-02T09:00:00Z,28.9818,-94.9186,2.0,303.1695836,49.73370085,-99999.0,'11111222,11111222,99999999' 
TABS,ioos:station:wmo:42043:1,2013-06-02T09:30:00Z,28.9818,-94.9186,2.0,340.5105165,23.0189574,-99999.0,'11111222,11111222,99999999' 
TABS,ioos:station:wmo:42043:1,2013-06-02T10:00:00Z,28.9818,-94.9186,2.0,292.290281,44.21381006,-99999.0,'11111222,11111222,99999999' 
TABS,ioos:station:wmo:42043:1,2013-06-02T10:30:00Z,28.9818,-94.9186,2.0,303.3301236,50.72278876,-99999.0,'11111222,11111222,99999999' 
TABS,ioos:station:wmo:42043:1,2013-06-02T11:00:00Z,28.9818,-94.9186,2.0,311.7394941,38.28818356,-99999.0,'11111222,11111222,99999999' 
TABS,ioos:station:wmo:42043:1,2013-06-02T11:30:00Z,28.9818,-94.9186,2.0,303.423271,66.02945555,-99999.0,'11111222,11111222,99999999' 
TABS,ioos:station:wmo:42043:1,2013-06-02T12:00:00Z,28.9818,-94.9186,2.0,290.6000433,55.33824085,-99999.0,'11111222,11111222,99999999' 
TABS,ioos:station:wmo:42043:1,2013-06-02T12:30:00Z,28.9818,-94.9186,2.0,278.788236,34.49494166,-99999.0,'11111222,11111222,99999999' 
TABS,ioos:station:wmo:42043:1,2013-06-02T13:00:00Z,28.9818,-94.9186,2.0,309.8037873,34.74152702,-99999.0,'11111222,11111222,99999999' 
TABS,ioos:station:wmo:42043:1,2013-06-02T13:30:00Z,28.9818,-94.9186,2.0,30.77121659,16.82925132,-99999.0,'11111222,11111222,99999999' 
TABS,ioos:station:wmo:42043:1,2013-06-02T14:00:00Z,28.9818,-94.9186,2.0,10.49499683,62.58699226,-99999.0,'11111222,11111222,99999999' 
TABS,ioos:station:wmo:42043:1,2013-06-02T14:30:00Z,28.9818,-94.9186,2.0,323.4672632,16.32828221,-99999.0,'11111222,11111222,99999999' 
TABS,ioos:station:wmo:42043:1,2013-06-02T15:00:00Z,28.9818,-94.9186,2.0,289.491739,61.91843425,-99999.0,'11111222,11111222,99999999' 
TABS,ioos:station:wmo:42043:1,2013-06-02T15:30:00Z,28.9818,-94.9186,2.0,285.7665298,50.05306085,-99999.0,'11111222,11111222,99999999' 
TABS,ioos:station:wmo:42043:1,2013-06-02T16:00:00Z,28.9818,-94.9186,2.0,290.4333969,53.96545654,-99999.0,'11111222,11111222,99999999' 
TABS,ioos:station:wmo:42043:1,2013-06-02T16:30:00Z,28.9818,-94.9186,2.0,38.25094622,2.406698984,-99999.0,'11133222,11111222,99999999' 
TABS,ioos:station:wmo:42043:1,2013-06-02T17:00:00Z,28.9818,-94.9186,2.0,322.1327304,13.55405474,-99999.0,'11111222,11111222,99999999' 
TABS,ioos:station:wmo:42043:1,2013-06-02T17:30:00Z,28.9818,-94.9186,2.0,234.6188173,82.81396561,-99999.0,'11111222,11111222,99999999' 
TABS,ioos:station:wmo:42043:1,2013-06-02T18:00:00Z,28.9818,-94.9186,2.0,240.4816403,82.38327622,-99999.0,'11111222,11111222,99999999' 
TABS,ioos:station:wmo:42043:1,2013-06-02T18:30:00Z,28.9818,-94.9186,2.0,247.624711,83.66922612,-99999.0,'11111222,11111222,99999999' 
TABS,ioos:station:wmo:42043:1,2013-06-02T19:00:00Z,28.9818,-94.9186,2.0,253.1354665,80.86769256,-99999.0,'11111222,11111222,99999999' 
TABS,ioos:station:wmo:42043:1,2013-06-02T19:30:00Z,28.9818,-94.9186,2.0,247.8474514,94.33314264,-99999.0,'11111222,11111222,99999999' 
TABS,ioos:station:wmo:42043:1,2013-06-02T20:00:00Z,28.9818,-94.9186,2.0,258.8521104,85.08532717,-99999.0,'11111222,11111222,99999999' 
TABS,ioos:station:wmo:42043:1,2013-06-02T20:30:00Z,28.9818,-94.9186,2.0,266.5356848,80.10634931,-99999.0,'11111222,11111222,99999999' 
TABS,ioos:station:wmo:42043:1,2013-06-02T21:00:00Z,28.9818,-94.9186,2.0,274.3997222,72.48356021,-99999.0,'11111222,11111222,99999999' 
TABS,ioos:station:wmo:42043:1,2013-06-02T21:30:00Z,28.9818,-94.9186,2.0,271.3602995,77.53183669,-99999.0,'11111222,11111222,99999999' 
TABS,ioos:station:wmo:42043:1,2013-06-02T22:00:00Z,28.9818,-94.9186,2.0,279.0994667,72.08711674,-99999.0,'11111222,11111222,99999999' 
TABS,ioos:station:wmo:42043:1,2013-06-02T22:30:00Z,28.9818,-94.9186,2.0,279.5252344,67.80475868,-99999.0,'11111222,11111222,99999999' 
TABS,ioos:station:wmo:42043:1,2013-06-02T23:00:00Z,28.9818,-94.9186,2.0,277.9798696,65.62539295,-99999.0,'11111222,11111222,99999999' 
TABS,ioos:station:wmo:42043:1,2013-06-02T23:30:00Z,28.9818,-94.9186,2.0,281.8586887,68.03188076,-99999.0,'11111222,11111222,99999999' 
TABS,ioos:station:wmo:42043:1,2013-06-03T00:00:00Z,28.9818,-94.9186,2.0,282.3633108,71.92793338,-99999.0,'11111222,11111222,99999999' 
TABS,ioos:station:wmo:42043:1,2013-06-03T00:30:00Z,28.9818,-94.9186,2.0,283.7097601,67.59577871,-99999.0,'11111222,11111222,99999999' 
TABS,ioos:station:wmo:42043:1,2013-06-03T01:00:00Z,28.9818,-94.9186,2.0,283.6970902,79.39785639,-99999.0,'11111222,11111222,99999999' 
TABS,ioos:station:wmo:42043:1,2013-06-03T01:30:00Z,28.9818,-94.9186,2.0,291.8741795,70.53828748,-99999.0,'11111222,11111222,99999999' 
TABS,ioos:station:wmo:42043:1,2013-06-03T02:00:00Z,28.9818,-94.9186,2.0,292.8165491,74.75966961,-99999.0,'11111222,11111222,99999999' 
TABS,ioos:station:wmo:42043:1,2013-06-03T02:30:00Z,28.9818,-94.9186,2.0,301.3836846,66.97885338,-99999.0,'11111222,11111222,99999999' 
TABS,ioos:station:wmo:42043:1,2013-06-03T03:00:00Z,28.9818,-94.9186,2.0,306.8040116,62.29604161,-99999.0,'11111222,11111222,99999999' 
TABS,ioos:station:wmo:42043:1,2013-06-03T03:30:00Z,28.9818,-94.9186,2.0,307.3400161,59.51800064,-99999.0,'11111222,11111222,99999999' 
TABS,ioos:station:wmo:42043:1,2013-06-03T04:00:00Z,28.9818,-94.9186,2.0,315.7778467,57.83958938,-99999.0,'11111222,11111222,99999999' 
TABS,ioos:station:wmo:42043:1,2013-06-03T04:30:00Z,28.9818,-94.9186,2.0,322.0160933,52.44991897,-99999.0,'11111222,11111222,99999999' 
TABS,ioos:station:wmo:42043:1,2013-06-03T05:00:00Z,28.9818,-94.9186,2.0,324.4120211,47.39185584,-99999.0,'11111222,11111222,99999999' 
TABS,ioos:station:wmo:42043:1,2013-06-03T05:30:00Z,28.9818,-94.9186,2.0,328.0569578,40.12624328,-99999.0,'11111222,11111222,99999999' 
TABS,ioos:station:wmo:42043:1,2013-06-03T06:00:00Z,28.9818,-94.9186,2.0,323.6320461,37.69144465,-99999.0,'11111222,11111222,99999999' 
TABS,ioos:station:wmo:42043:1,2013-06-03T06:30:00Z,28.9818,-94.9186,2.0,321.5534757,30.66961526,-99999.0,'11111222,11111222,99999999' 
TABS,ioos:station:wmo:42043:1,2013-06-03T07:00:00Z,28.9818,-94.9186,2.0,312.0841373,28.2147426,-99999.0,'11111222,11111222,99999999' 
TABS,ioos:station:wmo:42043:1,2013-06-03T07:30:00Z,28.9818,-94.9186,2.0,315.4642379,24.45255406,-99999.0,'11111222,11111222,99999999' 
TABS,ioos:station:wmo:42043:1,2013-06-03T08:00:00Z,28.9818,-94.9186,2.0,320.7622849,22.74942856,-99999.0,'11111222,11111222,99999999' 
TABS,ioos:station:wmo:42043:1,2013-06-03T08:30:00Z,28.9818,-94.9186,2.0,321.9069879,16.11167279,-99999.0,'11111222,11111222,99999999' 
TABS,ioos:station:wmo:42043:1,2013-06-03T09:00:00Z,28.9818,-94.9186,2.0,311.6747565,12.79897262,-99999.0,'11111222,11111222,99999999' 
TABS,ioos:station:wmo:42043:1,2013-06-03T09:30:00Z,28.9818,-94.9186,2.0,259.6352751,3.446229824,-99999.0,'11133222,11111222,99999999' 
TABS,ioos:station:wmo:42043:1,2013-06-03T10:00:00Z,28.9818,-94.9186,2.0,225.9625457,6.732607222,-99999.0,'11133222,11111222,99999999' 
TABS,ioos:station:wmo:42043:1,2013-06-03T10:30:00Z,28.9818,-94.9186,2.0,198.9159221,12.80135149,-99999.0,'11111222,11111222,99999999' 
TABS,ioos:station:wmo:42043:1,2013-06-03T11:00:00Z,28.9818,-94.9186,2.0,209.3501337,21.25881699,-99999.0,'11111222,11111222,99999999' 
TABS,ioos:station:wmo:42043:1,2013-06-03T11:30:00Z,28.9818,-94.9186,2.0,201.8857205,23.90272997,-99999.0,'11111222,11111222,99999999' 
TABS,ioos:station:wmo:42043:1,2013-06-03T12:00:00Z,28.9818,-94.9186,2.0,203.7464244,29.92347908,-99999.0,'11111222,11111222,99999999' 
TABS,ioos:station:wmo:42043:1,2013-06-03T12:30:00Z,28.9818,-94.9186,2.0,209.8614048,31.02983403,-99999.0,'11111222,11111222,99999999' 
TABS,ioos:station:wmo:42043:1,2013-06-03T13:00:00Z,28.9818,-94.9186,2.0,214.3867092,37.39510663,-99999.0,'11111222,11111222,99999999' 
TABS,ioos:station:wmo:42043:1,2013-06-03T13:30:00Z,28.9818,-94.9186,2.0,219.7764287,50.87546069,-99999.0,'11111222,11111222,99999999' 
TABS,ioos:station:wmo:42043:1,2013-06-03T14:00:00Z,28.9818,-94.9186,2.0,231.1493584,52.60742248,-99999.0,'11111222,11111222,99999999' 
TABS,ioos:station:wmo:42043:1,2013-06-03T14:30:00Z,28.9818,-94.9186,2.0,228.8393146,63.25125532,-99999.0,'11111222,11111222,99999999' 
TABS,ioos:station:wmo:42043:1,2013-06-03T15:00:00Z,28.9818,-94.9186,2.0,228.2637816,68.79996802,-99999.0,'11111222,11111222,99999999' 
TABS,ioos:station:wmo:42043:1,2013-06-03T15:30:00Z,28.9818,-94.9186,2.0,225.4259305,68.43568806,-99999.0,'11111222,11111222,99999999' 
TABS,ioos:station:wmo:42043:1,2013-06-03T16:00:00Z,28.9818,-94.9186,2.0,222.5815214,68.04183713,-99999.0,'11111222,11111222,99999999' 
TABS,ioos:station:wmo:42043:1,2013-06-03T16:30:00Z,28.9818,-94.9186,2.0,224.3614559,57.76713685,-99999.0,'11111222,11111222,99999999' 
TABS,ioos:station:wmo:42043:1,2013-06-03T17:00:00Z,28.9818,-94.9186,2.0,224.4420629,57.39857577,-99999.0,'11111222,11111222,99999999' 
TABS,ioos:station:wmo:42043:1,2013-06-03T17:30:00Z,28.9818,-94.9186,2.0,224.5021196,54.55534529,-99999.0,'11111222,11111222,99999999' 
TABS,ioos:station:wmo:42043:1,2013-06-03T18:00:00Z,28.9818,-94.9186,2.0,228.2169422,61.23296171,-99999.0,'11111222,11111222,99999999' 
TABS,ioos:station:wmo:42043:1,2013-06-03T18:30:00Z,28.9818,-94.9186,2.0,231.141355,57.69874262,-99999.0,'11111222,11111222,99999999' 
TABS,ioos:station:wmo:42043:1,2013-06-03T19:00:00Z,28.9818,-94.9186,2.0,234.0896388,53.12745524,-99999.0,'11111222,11111222,99999999' 
TABS,ioos:station:wmo:42043:1,2013-06-03T19:30:00Z,28.9818,-94.9186,2.0,236.4125668,58.64022595,-99999.0,'11111222,11111222,99999999' 
TABS,ioos:station:wmo:42043:1,2013-06-03T20:00:00Z,28.9818,-94.9186,2.0,242.764744,60.44057577,-99999.0,'11111222,11111222,99999999' 
TABS,ioos:station:wmo:42043:1,2013-06-03T20:30:00Z,28.9818,-94.9186,2.0,245.9703358,60.95228708,-99999.0,'11111222,11111222,99999999' 
TABS,ioos:station:wmo:42043:1,2013-06-03T21:00:00Z,28.9818,-94.9186,2.0,247.6581645,62.05842489,-99999.0,'11111222,11111222,99999999' 
TABS,ioos:station:wmo:42043:1,2013-06-03T21:30:00Z,28.9818,-94.9186,2.0,247.8092234,58.80549804,-99999.0,'11111222,11111222,99999999' 
TABS,ioos:station:wmo:42043:1,2013-06-03T22:00:00Z,28.9818,-94.9186,2.0,251.3457898,52.14950144,-99999.0,'11111222,11111222,99999999' 
TABS,ioos:station:wmo:42043:1,2013-06-03T22:30:00Z,28.9818,-94.9186,2.0,248.69724,50.31791729,-99999.0,'11111222,11111222,99999999' 
TABS,ioos:station:wmo:42043:1,2013-06-03T23:00:00Z,28.9818,-94.9186,2.0,249.3480084,47.01081259,-99999.0,'11111222,11111222,99999999' 
TABS,ioos:station:wmo:42043:1,2013-06-03T23:30:00Z,28.9818,-94.9186,2.0,250.7413307,39.17201552,-99999.0,'11111222,11111222,99999999' 
TABS,ioos:station:wmo:42043:1,2013-06-04T00:00:00Z,28.9818,-94.9186,2.0,253.8581482,35.32247585,-99999.0,'11111222,11111222,99999999' 
TABS,ioos:station:wmo:42043:1,2013-06-04T00:30:00Z,28.9818,-94.9186,2.0,264.7986988,32.10216504,-99999.0,'11111222,11111222,99999999' 
TABS,ioos:station:wmo:42043:1,2013-06-04T01:00:00Z,28.9818,-94.9186,2.0,270.1350529,29.79008224,-99999.0,'11111222,11111222,99999999' 
TABS,ioos:station:wmo:42043:1,2013-06-04T01:30:00Z,28.9818,-94.9186,2.0,279.3623944,30.98268065,-99999.0,'11111222,11111222,99999999' 
TABS,ioos:station:wmo:42043:1,2013-06-04T02:00:00Z,28.9818,-94.9186,2.0,282.5589445,29.24982222,-99999.0,'11111222,11111222,99999999' 
TABS,ioos:station:wmo:42043:1,2013-06-04T02:30:00Z,28.9818,-94.9186,2.0,290.7351496,25.13821991,-99999.0,'11111222,11111222,99999999' 
TABS,ioos:station:wmo:42043:1,2013-06-04T03:00:00Z,28.9818,-94.9186,2.0,296.1594246,25.24584124,-99999.0,'11111222,11111222,99999999' 
TABS,ioos:station:wmo:42043:1,2013-06-04T03:30:00Z,28.9818,-94.9186,2.0,299.1317424,28.26541526,-99999.0,'11111222,11111222,99999999' 
TABS,ioos:station:wmo:42043:1,2013-06-04T04:00:00Z,28.9818,-94.9186,2.0,308.1018515,27.72840601,-99999.0,'11111222,11111222,99999999' 
TABS,ioos:station:wmo:42043:1,2013-06-04T04:30:00Z,28.9818,-94.9186,2.0,311.300229,26.95452838,-99999.0,'11111222,11111222,99999999' 
TABS,ioos:station:wmo:42043:1,2013-06-04T05:00:00Z,28.9818,-94.9186,2.0,327.005894,30.15295176,-99999.0,'11111222,11111222,99999999' 
TABS,ioos:station:wmo:42043:1,2013-06-04T05:30:00Z,28.9818,-94.9186,2.0,328.9897066,33.57943418,-99999.0,'11111222,11111222,99999999' 
TABS,ioos:station:wmo:42043:1,2013-06-04T06:00:00Z,28.9818,-94.9186,2.0,331.8987684,31.35647461,-99999.0,'11111222,11111222,99999999' 
TABS,ioos:station:wmo:42043:1,2013-06-04T06:30:00Z,28.9818,-94.9186,2.0,335.1950315,30.58147315,-99999.0,'11111222,11111222,99999999' 
TABS,ioos:station:wmo:42043:1,2013-06-04T07:00:00Z,28.9818,-94.9186,2.0,336.3519075,31.1127048,-99999.0,'11111222,11111222,99999999' 
TABS,ioos:station:wmo:42043:1,2013-06-04T07:30:00Z,28.9818,-94.9186,2.0,326.1993102,24.35693125,-99999.0,'11111222,11111222,99999999' 
TABS,ioos:station:wmo:42043:1,2013-06-04T08:00:00Z,28.9818,-94.9186,2.0,329.1712601,17.50319399,-99999.0,'11111222,11111222,99999999' 
TABS,ioos:station:wmo:42043:1,2013-06-04T08:30:00Z,28.9818,-94.9186,2.0,321.1435165,7.268369831,-99999.0,'11133222,11111222,99999999' 
TABS,ioos:station:wmo:42043:1,2013-06-04T09:00:00Z,28.9818,-94.9186,2.0,268.0821521,16.13903653,-99999.0,'11111222,11111222,99999999' 
TABS,ioos:station:wmo:42043:1,2013-06-04T09:30:00Z,28.9818,-94.9186,2.0,260.3925933,24.08781642,-99999.0,'11111222,11111222,99999999' 
TABS,ioos:station:wmo:42043:1,2013-06-04T10:00:00Z,28.9818,-94.9186,2.0,244.935654,26.46176487,-99999.0,'11111222,11111222,99999999' 
TABS,ioos:station:wmo:42043:1,2013-06-04T10:30:00Z,28.9818,-94.9186,2.0,246.5674533,25.12175551,-99999.0,'11111222,11111222,99999999' 
TABS,ioos:station:wmo:42043:1,2013-06-04T11:00:00Z,28.9818,-94.9186,2.0,240.1554682,27.91157824,-99999.0,'11111222,11111222,99999999' 
TABS,ioos:station:wmo:42043:1,2013-06-04T11:30:00Z,28.9818,-94.9186,2.0,236.8647317,29.19801534,-99999.0,'11111222,11111222,99999999' 
TABS,ioos:station:wmo:42043:1,2013-06-04T12:00:00Z,28.9818,-94.9186,2.0,217.0452537,28.05213183,-99999.0,'11111222,11111222,99999999' 
TABS,ioos:station:wmo:42043:1,2013-06-04T12:30:00Z,28.9818,-94.9186,2.0,208.1840384,34.65947778,-99999.0,'11111222,11111222,99999999' 
TABS,ioos:station:wmo:42043:1,2013-06-04T13:00:00Z,28.9818,-94.9186,2.0,211.2006697,31.48398005,-99999.0,'11111222,11111222,99999999' 
TABS,ioos:station:wmo:42043:1,2013-06-04T13:30:00Z,28.9818,-94.9186,2.0,211.1419447,31.38267834,-99999.0,'11111222,11111222,99999999' 
TABS,ioos:station:wmo:42043:1,2013-06-04T14:00:00Z,28.9818,-94.9186,2.0,212.8726216,33.25488536,-99999.0,'11111222,11111222,99999999' 
TABS,ioos:station:wmo:42043:1,2013-06-04T14:30:00Z,28.9818,-94.9186,2.0,216.5783931,31.4804066,-99999.0,'11111222,11111222,99999999' 
TABS,ioos:station:wmo:42043:1,2013-06-04T15:00:00Z,28.9818,-94.9186,2.0,214.3242556,32.56012439,-99999.0,'11111222,11111222,99999999' 
TABS,ioos:station:wmo:42043:1,2013-06-04T15:30:00Z,28.9818,-94.9186,2.0,220.1171898,31.98536697,-99999.0,'11111222,11111222,99999999' 